SCP
0 0 0 0 0 0 0 0 0 0 0 0 0 0 0 0 0 0 0 0 0 0 0 0 0 0 0 0 0 0 0 0 0 0 0 0 0 0 0 0 0 0 0 0
0 0 0 0 0 0 0 0 0 0 0 0 0 0 0 0 0 0 0 0 0 0 0 0 0 0 0 0 0 0 0 0 0 0 0 0 0 0 0 0 0 0 0 0
0 0 0 0 0 0 0 0 0 0 0 0 0 0 0 0 0 0 0 0 0 0 0 0 0 0 0 0 0 0 0 0 0 0 0 0 0 0 0 0 0 0 0 0
0 0 0 0 0 0 0 0 0 0 0 0 0 0 0 0 0 0 0 0 0 0 0 0 0 0 0 0 0 0 0 0 0 0 0 0 0 0 0 0 0 0 0 0
0 0 0 0 0 0 0 0 0 0 0 0 0 0 0 0 0 0 0 0 0 0 0 0 0 0 0 0 0 0 0 0 0 0 0 0 0 0 0 0 0 0 0 0
0 0 0 0 0 0 0 0 0 0 0 0 0 0 0 0 0 0 0 0 0 0 0 0 0 0 0 0 0 0 0 0 0 0 0 0 0 0 0 0 0 0 0 0
0 0 0 0 0 0 0 0 0 0 0 0 0 0 0 0 0 0 0 0 0 0 0 0 0 0 0 0 0 0 0 0 0 0 0 0 0 0 0 0 0 0 0 0
0 0 0 0 0 0 0 0 0 0 0 0 0 0 0 0 0 0 0 0 0 0 0 0 0 0 0 0 0 0 0 0 0 0 0 0 0 0 0 0 0 0 0 0
0 0 0 0 0 0 0 0 0 0 0 0 0 0 0 0 0 0 0 0 0 0 0 0 0 0 0 0 0 0 0 0 0 0 0 0 0 0 0 0 0 0 0 0
0 0 0 0 0 0 0 0 0 0 0 0 0 0 0 0 0 0 0 0 0 0 0 0 0 0 0 0 0 0 0 0 0 0 0 0 0 0 0 0 0 0 0 0
0 0 0 0 0 0 0 0 0 0 0 0 0 0 0 0 0 0 0 0 0 0 0 0 0 0 0 0 0 0 0 0 0 0 0 0 0 0 0 0 0 0 0 0
0 0 0 0 0 0 0 0 0 0 0 0 0 0 0 0 0 0 0 0 0 0 0 0 0 0 0 0 0 0 0 0 0 0 0 0 0 0 0 0 0 0 0 0
0 0 0 0 0 0 0 0 0 0 0 0 0 0 0 0 0 0 0 0 0 0 0 0 0 0 0 0 0 0 0 0 0 0 0 0 0 0 0 0 0 0 0 0
0 0 0 0 0 0 0 0 0 0 0 0 0 0 0 0 0 0 0 0 0 0 0 0 0 0 0 0 0 0 0 0 0 0 0 0 0 0 0 0 0 0 0 0
0 0 0 0 0 0 0 0 0 0 0 0 0 0 0 0 0 0 0 0 0 0 0 0 0 0 0 0 0 0 0 0 0 0 0 0 0 0 0 0 0 0 0 0
0 0 0 0 0 0 0 0 0 0 0 0 0 0 0 0 0 0 0 0 0 0 0 0 0 0 0 0 0 0 0 0 0 0 0 0 0 0 0 0 0 0 0 0
0 0 0 0 0 0 0 0 0 0 0 0 0 0 0 0 0 0 0 0 0 0 0 0 0 0 0 0 0 0 0 0 0 0 0 0 0 0 0 0 0 0 0 1
0 0 0 0 0 0 0 0 0 0 0 0 0 0 0 0 0 0 0 0 0 0 0 0 0 0 0 0 0 0 0 0 0 0 0 0 0 1 1 0 0 0 0 1
0 0 0 0 0 0 0 0 0 0 0 0 0 0 0 0 0 0 0 0 0 0 0 0 0 0 0 1 1 1 1 1 0 0 0 0 0 0 1 0 0 0 0 1
0 0 0 0 0 0 0 0 0 0 0 0 0 0 0 0 0 0 0 0 0 1 1 0 0 0 0 1 1 1 1 1 1 0 0 0 0 0 0 0 0 0 0 0
0 0 0 0 0 0 0 0 0 0 0 0 0 0 0 0 0 0 0 0 0 1 1 1 0 0 0 0 1 1 1 1 0 0 0 0 0 0 0 0 1 1 1 0
0 0 0 0 0 0 0 0 0 0 0 0 0 0 0 0 0 1 1 1 1 0 0 0 0 0 0 0 0 0 0 0 0 0 0 0 0 0 0 1 1 1 1 1
0 0 0 0 0 0 0 0 0 0 0 0 0 0 0 0 0 1 1 1 0 0 0 0 0 0 0 0 0 0 0 0 0 0 0 1 1 1 1 1 1 1 1 1
0 0 0 0 0 0 0 0 0 0 0 0 0 0 0 0 0 1 1 0 0 0 0 0 0 0 0 0 0 0 0 0 0 1 1 1 1 1 1 1 1 1 1 1
0 0 0 0 0 0 0 0 0 0 0 0 0 0 0 0 0 0 0 0 0 0 0 0 0 0 0 0 0 0 0 1 1 1 1 1 1 1 1 1 1 1 0 0
0 0 0 0 0 0 0 0 0 0 0 0 0 0 0 0 0 0 0 0 0 0 0 0 0 0 0 0 0 0 0 0 1 1 1 0 0 1 1 1 1 0 0 0
Wind_Speed
5 5 2 0 1 2 1 1 2 4 3 2 3 4 6 6 5 5 5 5 5 4 4 4 3 3 3 2 2 2 1 1 1 0 1 0 0 0 0 1 1 1 1 1
6 5 1 1 2 3 2 1 3 4 3 1 3 3 4 5 5 4 4 5 5 5 5 4 4 3 3 3 3 2 2 2 2 1 1 1 1 1 1 1 1 1 1 2
6 1 2 3 4 4 2 1 1 2 4 4 3 4 5 4 4 4 4 4 4 5 5 5 5 4 4 3 3 1 1 1 2 1 1 1 1 1 0 1 0 1 1 1
5 3 3 4 3 3 1 0 2 3 4 2 3 1 5 4 4 4 5 5 4 5 5 5 5 4 3 3 3 3 2 1 1 2 1 1 1 1 2 2 1 1 1 2
5 4 5 4 2 3 1 1 2 3 3 2 3 3 4 4 3 4 5 5 5 5 4 4 4 4 3 3 3 3 2 2 1 2 2 2 2 1 1 2 2 2 1 1
4 4 3 2 2 3 4 5 5 6 6 2 1 3 2 2 1 3 5 5 5 5 4 4 4 3 2 3 3 3 3 2 1 2 1 2 2 2 3 2 2 2 1 1
8 7 5 4 5 6 7 6 5 5 4 1 2 3 3 4 2 2 4 5 6 6 5 5 4 4 3 3 3 3 3 2 1 1 1 2 2 3 3 3 2 2 2 1
9 9 7 5 5 4 6 7 6 5 3 1 3 1 4 4 3 3 3 5 5 6 5 5 5 4 4 3 3 3 3 2 1 1 1 1 2 3 2 2 3 2 2 2
6 6 6 4 3 5 5 5 6 6 5 4 1 2 4 4 4 4 4 5 5 5 5 5 5 5 4 4 4 3 3 2 1 1 1 0 1 3 3 3 3 2 2 2
5 5 6 6 6 2 4 4 4 6 5 5 3 4 2 5 3 4 4 4 4 5 5 5 5 5 4 4 4 3 3 2 1 1 1 1 1 1 2 3 3 3 3 3
8 7 7 8 7 6 5 5 5 5 6 7 3 1 5 3 3 3 4 4 4 5 5 5 5 4 4 4 4 3 2 2 1 0 0 1 1 1 2 2 2 2 2 2
7 7 6 6 3 3 6 6 7 6 5 6 6 2 6 3 3 3 3 4 4 4 4 5 5 4 4 3 3 3 2 2 1 0 0 1 1 2 2 2 2 2 2 3
5 7 8 9 9 7 6 5 8 8 6 6 6 2 6 4 3 3 3 4 5 4 4 4 4 3 3 2 2 2 2 1 0 0 1 1 2 2 3 3 3 3 3 3
6 7 8 7 3 4 6 5 6 8 7 6 5 2 2 2 2 2 3 4 4 5 4 3 3 3 2 2 1 1 1 1 1 1 2 2 2 3 3 3 3 3 3 4
6 7 7 5 3 4 6 6 6 8 8 8 5 3 1 0 1 2 3 4 4 4 3 3 2 2 2 1 1 1 1 0 1 2 2 2 3 3 3 3 3 3 4 4
4 6 7 7 6 6 6 6 7 7 7 7 6 4 1 1 2 3 4 4 3 3 3 3 3 2 2 2 1 1 1 0 1 2 3 2 3 3 3 4 4 4 4 4
6 6 8 8 7 8 9 7 8 7 6 7 7 2 1 1 2 2 2 3 2 2 2 2 2 2 1 1 1 1 1 1 1 2 3 3 3 3 3 4 4 4 4 5
6 7 6 6 7 11 2 1 3 5 5 4 3 0 1 0 1 1 2 2 1 1 1 1 1 1 1 1 1 1 1 1 2 2 2 3 4 4 4 4 4 4 4 5
6 7 7 8 10 8 5 4 3 5 5 2 3 2 1 1 3 4 3 2 1 1 1 1 1 1 1 1 1 0 1 1 2 2 3 3 4 4 4 5 5 5 5 5
6 7 8 8 9 9 2 3 1 6 6 2 1 2 2 3 4 3 3 2 3 2 2 2 2 2 2 2 1 0 1 1 2 3 3 3 4 4 5 5 5 5 5 6
9 8 10 10 9 5 3 3 5 7 1 2 1 2 3 2 2 3 3 3 3 2 2 2 3 2 2 2 2 1 2 2 3 3 3 3 3 4 4 4 4 5 5 5
8 8 8 8 10 5 5 4 3 3 3 1 1 2 1 1 3 3 3 3 2 2 2 3 3 2 2 2 2 2 2 3 3 3 3 3 4 4 3 4 4 4 5 5
6 4 3 4 1 4 2 1 2 2 1 0 1 2 2 2 3 3 2 3 2 2 2 3 3 2 2 2 2 3 3 3 3 4 4 4 4 4 4 4 4 4 3 4
4 2 4 4 3 1 1 1 1 1 1 1 1 2 3 3 3 3 2 2 2 2 2 2 2 2 2 3 3 3 3 3 3 4 4 4 4 4 3 4 4 4 4 4
2 4 5 5 3 2 2 1 1 0 1 1 2 3 3 3 3 3 2 2 1 1 1 1 1 2 2 3 3 3 3 3 4 4 4 4 4 3 3 3 3 4 3 4
4 5 6 4 2 3 1 0 0 1 2 2 2 3 3 3 3 3 2 1 1 0 1 1 1 2 3 3 3 4 4 4 4 4 4 4 3 3 3 3 3 1 3 2
Wind_Direction
201 229 224 105 340 1 353 28 71 77 102 168 120 120 138 158 175 174 174 176 177 168 154 155 162 161 156 151 159 161 179 151 206 223 277 261 24 300 277 273 336 298 303 297
201 217 228 179 198 226 237 225 120 119 133 208 124 123 135 160 181 188 187 182 182 174 166 164 172 175 173 167 178 183 184 187 215 177 252 295 317 307 323 331 5 310 298 281
221 131 137 202 198 212 226 276 51 118 155 185 191 161 141 152 176 179 187 188 184 183 176 171 173 181 184 181 186 182 184 194 224 235 224 224 225 255 278 286 268 306 307 288
225 189 204 212 201 240 196 46 198 187 216 158 242 163 131 156 172 188 190 184 180 174 174 173 171 176 186 184 175 173 174 191 214 225 243 266 298 320 328 309 340 331 323 309
194 198 215 221 227 255 53 148 206 215 240 240 213 265 112 147 181 183 181 179 174 168 169 172 171 167 178 179 177 169 163 187 211 231 212 244 266 291 307 311 329 309 307 298
200 187 231 215 175 198 162 180 192 215 234 242 306 277 91 115 174 157 158 165 164 158 157 159 154 151 163 168 174 162 151 168 205 229 237 249 280 300 312 307 312 301 308 297
192 184 178 189 179 176 213 235 229 219 215 165 123 265 52 69 88 134 146 147 152 155 159 157 157 157 157 159 154 143 140 153 182 217 257 274 283 278 282 291 296 307 320 320
204 190 181 198 228 224 228 262 284 296 301 139 179 234 81 85 98 109 129 138 148 153 156 159 160 158 156 151 147 143 136 138 145 172 253 288 291 283 292 300 307 312 310 318
219 188 154 178 223 247 223 249 291 285 276 271 205 157 132 129 133 130 132 138 150 157 158 157 155 154 153 152 150 151 143 141 133 124 175 254 309 317 323 311 290 298 304 299
233 208 172 166 186 198 276 268 258 273 282 269 216 213 154 145 139 134 139 146 145 152 153 151 149 151 150 150 144 144 139 139 140 130 295 101 351 328 319 308 328 323 316 316
238 225 186 189 214 207 200 224 257 274 287 289 274 96 75 126 137 148 142 141 145 149 151 149 150 152 150 149 143 146 154 169 164 134 350 342 324 322 305 301 308 306 307 310
224 238 222 204 182 262 241 244 241 254 256 275 287 87 87 107 130 131 131 132 135 141 145 147 148 151 155 154 153 161 181 190 181 143 269 297 303 304 297 302 302 298 296 292
206 232 218 201 189 188 220 241 254 262 259 261 267 128 109 122 129 123 127 134 140 149 151 149 150 155 161 167 171 182 204 214 267 283 278 298 296 299 302 306 300 295 288 291
235 234 243 245 236 197 208 218 243 253 253 255 268 265 152 159 162 141 139 143 148 151 157 161 162 164 167 176 176 208 245 267 300 307 290 288 291 295 298 297 290 287 282 280
235 229 231 250 240 222 231 233 229 245 268 278 277 274 291 189 165 153 153 145 154 157 162 169 179 164 170 164 175 203 247 304 320 291 290 297 292 290 290 289 282 279 277 276
233 229 215 225 223 227 239 240 237 243 256 261 264 268 25 89 118 147 160 162 167 167 173 181 186 182 185 179 178 198 234 288 284 287 298 304 294 293 296 291 286 279 276 278
210 218 229 226 219 231 232 236 236 239 248 260 260 272 114 162 168 170 172 181 180 178 176 183 196 190 190 193 198 207 232 263 283 298 301 294 291 294 293 292 290 282 276 273
223 225 236 230 215 235 220 62 261 251 241 252 278 109 158 224 158 141 160 162 179 167 149 147 177 183 183 201 193 228 267 287 293 298 303 303 297 290 287 287 288 283 280 277
220 221 236 235 231 232 205 191 225 241 235 231 249 227 176 113 174 154 121 132 126 101 82 76 92 75 48 42 51 139 274 294 301 312 308 308 300 294 289 287 289 287 281 278
190 218 235 236 243 241 196 132 212 245 224 142 240 218 183 194 227 127 108 120 107 85 63 48 63 74 58 23 20 325 286 303 312 315 307 300 293 292 290 289 287 284 277 272
190 205 226 234 241 237 97 129 200 236 5 73 191 188 200 234 340 85 117 118 101 84 65 54 54 58 43 14 356 327 326 328 325 319 310 301 295 285 284 289 289 287 282 281
216 211 216 232 241 223 113 169 236 6 35 58 137 172 178 112 101 117 118 116 102 81 62 51 47 47 37 15 345 333 336 336 329 315 306 301 298 293 298 296 294 291 289 281
230 261 252 254 269 72 131 105 29 357 319 199 172 170 165 160 142 134 123 119 105 82 65 52 43 47 38 20 356 340 342 335 323 310 302 296 294 293 294 288 288 284 280 285
187 221 232 229 206 167 185 268 303 292 276 240 206 191 186 170 152 149 134 118 110 98 77 57 40 27 16 10 2 345 333 322 311 307 305 297 290 288 288 287 287 291 299 298
215 210 219 226 229 234 216 234 269 277 197 182 181 187 181 165 164 155 146 136 126 102 57 30 16 8 360 355 349 344 338 325 313 309 303 295 294 300 295 287 294 293 303 312
223 236 245 250 226 253 228 281 268 202 177 172 171 172 171 165 162 158 152 147 144 85 12 346 347 345 343 342 344 344 334 321 311 303 301 298 295 300 293 296 295 313 289 295